Torna al catalogo

HULIANWANG DIGUI-166

AttivoComunicazioniPO
NORAD 68658·PAYLOAD·🇨🇳 China

Lanciato Apr 8, 2026 da Taiyuan Satellite Launch Center

Loading…

Prossimi Passaggi (prossime 24 ore)

TLE

AggiornatoSource: Space-Track

Epoca: Sep 14, 2026, 13:27 UTC

1 68658U 26076C   26257.56083683  .00000026  00000-0  26669-4 0  9996
2 68658  86.4989  13.6269 0001289 108.3555 251.7719 13.24408408 21204

Traccia HULIANWANG DIGUI-166 in tempo reale con AllMySat

Download on the App Store